Lid_Strength_Index
-0 -0 -0 3 11 12 14 13 8 9 9 6 6 7 8 7 9 13 2 1 0 0 -0 -1 -1 -2 -1 -1 -1 -1 -1 -1 -1 -1 -1 -1 -1 -1 -2 -1 -2 -1 -1 -2 -1 -2 -2 -2 -2
-0 0 2 7 14 17 15 10 11 9 7 6 6 6 8 9 5 4 3 1 0 -0 -0 -0 -1 -2 -1 -1 -1 -1 -1 -1 -1 -1 -1 -1 -1 -2 -1 -1 -1 -2 -2 -2 -2 -1 -2 -2 -2
0 1 7 11 13 15 15 10 9 7 6 6 7 5 6 8 4 3 1 0 0 0 -0 -0 -1 -2 -1 -1 -1 -1 -1 -1 -1 -1 -1 -1 -1 -1 -2 -2 -2 -1 -2 -2 -2 -2 -2 -1 -1
2 4 6 13 13 11 11 9 7 8 6 6 6 9 5 3 3 2 0 0 0 0 -0 -1 -2 -1 -1 -1 -1 -1 -1 -1 -1 -1 -1 -1 -2 -2 -1 -2 -2 -2 -2 -2 -1 -1 -2 -1 -1
3 6 12 13 12 10 8 7 7 8 7 7 6 9 7 3 1 1 1 0 1 0 -0 -0 -2 -1 -1 -1 -1 -1 -1 -1 -1 -2 -2 -2 -2 -2 -1 -2 -2 -2 -2 -1 -2 -1 -1 -1 -1
7 7 13 14 12 8 7 6 7 7 7 7 7 8 7 3 2 1 1 1 0 0 -0 -0 -1 -1 -1 -1 -1 -1 -1 -1 -1 -2 -2 -1 -2 -1 -2 -2 -2 -2 -2 -1 -1 -1 -1 -1 -1
9 10 13 12 11 10 8 6 7 7 7 7 5 9 6 4 2 2 1 0 0 -0 0 -0 -0 -1 -1 -2 -1 -1 -1 -1 -1 -2 -1 -1 -1 -1 -1 -2 -2 -2 -2 -1 -1 -1 -1 -1 -1
7 9 12 11 11 11 6 6 5 6 7 4 4 9 8 4 3 2 2 1 1 0 0 0 0 -0 0 0 -1 -1 -1 -1 -1 -1 -1 -1 -1 -1 -2 -2 -2 -2 -2 -1 -1 -1 -1 -1 -1
4 12 13 11 10 9 6 7 5 4 6 5 5 5 4 2 3 3 3 3 1 1 0 0 0 0 1 0 -0 -1 -1 -1 -2 -1 -1 -1 -0 -1 -1 -1 -1 -2 -2 -1 -1 -1 -1 -1 -1
8 12 11 7 7 8 6 6 6 7 7 7 6 4 3 3 3 3 3 4 2 2 1 0 0 0 0 -0 0 0 -0 -0 -0 -0 -1 -0 -1 0 -0 -1 -1 -1 -1 -1 -1 -1 -1 -1 -1
8 11 7 6 6 5 6 7 5 7 9 7 7 6 4 4 3 3 3 3 3 2 1 0 1 0 0 0 -0 -0 0 -0 -0 -0 -0 -1 -1 -0 1 0 -0 -0 -1 -0 -1 -1 -1 -1 -1
10 7 6 5 5 6 7 6 7 7 7 5 5 4 4 4 4 3 3 3 3 2 1 1 0 0 0 -0 -0 0 0 -0 -0 -0 0 0 0 -0 -0 -0 -0 0 0 1 -1 0 0 0 -1
9 8 5 4 5 5 5 6 6 7 5 4 4 4 4 5 4 3 3 2 2 2 1 1 0 0 0 0 0 0 0 0 0 -0 -0 0 1 -0 -0 -0 -0 -0 -0 1 -0 -0 1 0 -1
6 7 6 5 5 5 7 7 6 6 5 5 5 5 4 5 5 4 4 3 3 3 2 1 1 0 1 0 0 0 0 0 -0 -0 -0 -0 0 0 -0 -0 0 -0 -0 -0 -0 0 1 1 -0
7 9 7 6 6 7 6 9 8 6 5 6 5 5 4 4 4 4 3 3 2 3 2 2 2 0 0 0 0 0 0 0 0 -0 -0 -0 1 0 -0 -0 -0 -0 0 -0 -0 0 0 0 -0
8 8 11 7 7 6 7 13 7 5 6 7 6 5 5 4 3 3 3 3 2 1 2 2 0 1 1 0 0 0 0 0 -0 -0 -0 -0 -0 -0 0 0 0 0 0 0 0 1 1 1 1
9 12 10 9 6 7 8 11 7 5 6 7 6 6 5 4 4 3 3 2 2 1 2 1 1 1 1 0 0 0 0 0 -0 0 -0 -0 -1 -0 -0 -0 -0 0 0 0 1 1 1 1 1
11 10 10 10 8 8 10 10 7 6 6 7 6 6 5 5 4 3 3 3 2 1 1 1 1 1 1 0 0 0 0 0 0 0 -0 -0 -0 -0 0 -0 0 0 0 0 0 1 1 1 1
8 9 10 8 7 10 11 10 8 7 7 7 7 6 6 5 3 3 4 2 2 2 1 2 1 1 1 1 2 2 2 1 1 0 -0 -0 -0 -0 0 0 0 0 1 1 0 1 1 1 1
9 9 10 8 7 9 10 10 8 7 7 7 7 6 6 5 4 4 3 2 2 2 1 2 1 1 1 1 1 1 1 1 0 0 -0 -0 -0 -0 -0 0 0 0 0 1 1 1 2 1 1
11 10 10 9 7 8 10 12 10 8 7 6 6 5 5 5 5 4 4 3 2 2 2 2 1 1 1 1 1 1 1 1 1 1 1 0 -0 -0 -0 -0 0 1 0 1 1 1 1 3 1
11 8 8 8 11 15 10 18 12 10 9 7 7 6 5 5 4 4 4 4 3 2 1 1 1 1 1 1 1 2 2 3 2 1 1 0 0 0 -0 -0 0 -0 0 1 1 0 1 1 3
10 7 8 8 10 12 12 16 13 10 11 9 7 6 5 5 4 4 4 3 2 2 2 1 1 1 1 1 1 1 2 2 1 1 1 1 0 -0 0 0 0 0 0 0 0 1 1 1 2
7 9 10 11 12 16 14 15 14 12 10 9 7 6 5 5 4 4 3 3 2 2 2 1 2 2 1 1 1 1 2 2 2 2 3 3 1 0 0 1 0 0 0 1 0 0 1 1 1
10 13 15 15 14 16 11 13 12 9 8 7 7 6 5 4 4 4 4 3 3 3 2 2 2 2 1 1 1 1 1 1 2 2 4 2 1 1 1 0 0 0 0 0 1 0 1 1 1
10 11 13 16 16 15 12 15 14 8 7 6 6 6 6 5 4 4 3 3 3 3 3 2 2 2 2 1 1 1 1 1 1 1 1 1 2 1 1 0 0 0 -0 0 0 1 1 0 1
10 13 11 13 13 14 14 11 9 8 8 8 7 7 6 6 4 4 3 3 3 3 3 3 2 2 2 2 1 1 1 1 1 1 1 1 1 0 1 0 0 1 0 0 0 1 1 1 1
10 9 13 13 15 18 15 16 15 12 11 9 8 7 6 5 5 4 3 3 3 3 3 3 2 2 2 1 1 1 1 1 1 1 1 1 1 1 1 1 1 1 0 0 0 1 1 1 1
10 12 12 12 12 15 18 16 10 11 10 10 8 7 6 6 5 4 4 3 3 2 2 2 2 2 2 2 1 1 1 1 1 1 1 1 1 1 1 1 1 1 1 0 1 1 1 1 1
9 11 11 14 14 13 15 16 8 8 8 8 8 7 6 5 4 4 4 3 3 3 2 2 2 2 2 1 2 1 1 1 1 1 1 1 1 1 1 1 1 1 1 1 1 1 1 1 2